Location: Bacharowice
(49.9333°N, 19.5833°E)
Time: 23:57:56
(UTC+00:00)

Cosmos 2278 Rocket - Pass Details

Date: 11 May 2021
Orbit: 841 x 845 km, 71.0° (Epoch: 21 June)

Event Time Altitude Azimuth Distance (km) Brightness Sun altitude
Rises 22:04:03 0° 254° (WSW) 3,394 5.3 -21.5°
Reaches altitude 10° 22:07:02 10° 270° (W) 2,462 4.7 -21.6°
Maximum altitude 22:11:24 22° 320° (NW) 1,749 4.5 -21.7°
Drops below altitude 10° 22:15:48 10° 11° (NNE) 2,471 5.7 -21.8°
Sets 22:18:49 0° 27° (NNE) 3,410 6.3 -21.8°
